Location: ??????????
(48.4699°N, 37.9573°E)
Time: 13:06:05
(UTC+00:00)

Cosmos 1844 Rocket - Pass Details

Date: 20 January 2021
Orbit: 825 x 843 km, 71.0° (Epoch: 26 February)

Event Time Altitude Azimuth Distance (km) Brightness Sun altitude
Rises 14:45:03 0° 158° (SSE) 3,388 5.9 -6.3°
Reaches altitude 10° 14:48:14 10° 140° (SE) 2,458 5.0 -6.8°
Maximum altitude 14:51:54 18° 99° (E) 1,957 4.1 -7.3°
Drops below altitude 10° 14:55:34 10° 58° (ENE) 2,465 4.5 -7.9°
Enters shadow 14:55:57 - 55° (NE) 2,561 4.6 -8.0°
